| time (UTC) | temp F | wind direction | speed MPH | gust MPH | rain 1hr in | rain 24hr in | rain mn in | humidity % | barometer mb |
| 20260831123838 | 86 | 2.0 | 4.0 | 0.00 | 0.00 | 0.00 | 11 | 1008.1 | |
| 20260831122826 | 86 | 2.0 | 4.0 | 0.00 | 0.00 | 0.00 | 11 | 1008.1 | |
| 20260831121811 | 87 | 2.0 | 4.0 | 0.00 | 0.00 | 0.00 | 11 | 1008.2 | |
| 20260831120801 | 87 | 1.0 | 4.0 | 0.00 | 0.00 | 0.00 | 11 | 1008.2 | |
| 20260831115749 | 86 | 2.0 | 4.0 | 0.00 | 0.00 | 0.00 | 11 | 1008.1 | |
| 20260831114737 | 86 | 1.0 | 6.0 | 0.00 | 0.00 | 0.00 | 11 | 1008.1 | |
| 20260831113726 | 82 | 6.0 | 8.0 | 0.00 | 0.00 | 0.00 | 11 | 1008.2 | |
| 20260831112711 | 84 | 2.0 | 7.0 | 0.00 | 0.00 | 0.00 | 11 | 1008.2 | |
| 20260831111656 | 87 | 0.0 | 6.0 | 0.00 | 0.00 | 0.00 | 11 | 1008.2 | |
| 20260831110644 | 84 | 2.0 | 6.0 | 0.00 | 0.00 | 0.00 | 11 | 1008.3 | |
| 20260831105632 | 84 | 4.0 | 7.0 | 0.00 | 0.00 | 0.00 | 11 | 1008.2 | |
| 20260831104621 | 82 | 5.0 | 9.0 | 0.00 | 0.00 | 0.00 | 11 | 1008.1 | |
| 20260831103609 | 87 | 3.0 | 6.0 | 0.00 | 0.00 | 0.00 | 11 | 1008.2 | |
| 20260831102557 | 89 | 2.0 | 5.0 | 0.00 | 0.00 | 0.00 | 11 | 1008.1 | |
| 20260831101545 | 89 | 0.0 | 7.0 | 0.00 | 0.00 | 0.00 | 11 | 1008.2 | |
| 20260831100533 | 87 | 3.0 | 8.0 | 0.00 | 0.00 | 0.00 | 11 | 1008.2 | |
| 20260831095518 | 87 | 5.0 | 7.0 | 0.00 | 0.00 | 0.00 | 11 | 1008.1 | |
| 20260831094507 | 89 | 1.0 | 6.0 | 0.00 | 0.00 | 0.00 | 11 | 1008.2 | |
| 20260831093455 | 87 | 3.0 | 9.0 | 0.00 | 0.00 | 0.00 | 11 | 1008.1 | |
| 20260831092442 | 87 | 2.0 | 6.0 | 0.00 | 0.00 | 0.00 | 11 | 1008.2 | |
| 20260831091431 | 87 | 3.0 | 8.0 | 0.00 | 0.00 | 0.00 | 11 | 1008.2 | |
| 20260831090420 | 87 | 2.0 | 8.0 | 0.00 | 0.00 | 0.00 | 11 | 1008.2 | |
| 20260831085405 | 87 | 4.0 | 6.0 | 0.00 | 0.00 | 0.00 | 10 | 1008.2 | |
| 20260831084354 | 87 | 5.0 | 9.0 | 0.00 | 0.00 | 0.00 | 10 | 1008.2 | |
| 20260831083343 | 89 | 0.0 | 1.0 | 0.00 | 0.00 | 0.00 | 11 | 1008.1 | |
| 20260831082330 | 87 | 3.0 | 5.0 | 0.00 | 0.00 | 0.00 | 11 | 1008.1 | |
| 20260831081318 | 86 | 0.0 | 3.0 | 0.00 | 0.00 | 0.00 | 11 | 1008.1 | |
| 20260831080306 | 86 | 0.0 | 6.0 | 0.00 | 0.00 | 0.00 | 11 | 1008.0 | |
| 20260831075254 | 86 | 1.0 | 4.0 | 0.00 | 0.00 | 0.00 | 11 | 1007.9 | |
| 20260831074242 | 84 | 0.0 | 5.0 | 0.00 | 0.00 | 0.00 | 11 | 1007.8 | |
| 20260831073230 | 82 | 0.0 | 3.0 | 0.00 | 0.00 | 0.00 | 11 | 1007.8 | |
| 20260831072217 | 80 | 0.0 | 1.0 | 0.00 | 0.00 | 0.00 | 11 | 1007.5 | |
| 20260831071206 | 80 | 0.0 | 0.0 | 0.00 | 0.00 | 0.00 | 11 | 1007.6 | |
| 20260831070154 | 78 | 0.0 | 0.0 | 0.00 | 0.00 | 0.00 | 11 | 1007.6 | |
| 20260831064131 | 78 | 0.0 | 1.0 | 0.00 | 0.00 | 0.00 | 11 | 1007.5 | |
| 20260831062614 | 77 | 0.0 | 0.0 | 0.00 | 0.00 | 0.00 | 11 | 1007.5 | |
| 20260831060647 | 69 | 0.0 | 0.0 | 0.00 | 0.00 | 0.00 | 11 | 1007.3 | |
| 20260831055635 | 69 | 0.0 | 0.0 | 0.00 | 0.00 | 0.00 | 11 | 1007.4 | |
| 20260831054624 | 69 | 0.0 | 0.0 | 0.00 | 0.00 | 0.00 | 11 | 1007.3 | |
| 20260831053006 | 69 | 0.0 | 0.0 | 0.00 | 0.00 | 0.00 | 11 | 1007.3 | |
| 20260831051348 | 68 | 0.0 | 0.0 | 0.00 | 0.00 | 0.00 | 11 | 1007.1 | |
| 20260831045325 | 68 | 0.0 | 0.0 | 0.00 | 0.00 | 0.00 | 11 | 1007.0 | |
| 20260831044314 | 68 | 0.0 | 0.0 | 0.00 | 0.00 | 0.00 | 11 | 1007.0 | |
| 20260831042757 | 69 | 0.0 | 0.0 | 0.00 | 0.00 | 0.00 | 11 | 1006.9 | |
| 20260831041241 | 69 | 0.0 | 0.0 | 0.00 | 0.00 | 0.00 | 11 | 1006.9 | |
| 20260831035623 | 69 | 0.0 | 1.0 | 0.00 | 0.00 | 0.00 | 11 | 1006.9 | |
| 20260831034611 | 69 | 0.0 | 0.0 | 0.00 | 0.00 | 0.00 | 11 | 1007.0 | |
| 20260831033601 | 69 | 0.0 | 3.0 | 0.00 | 0.00 | 0.00 | 11 | 1007.1 | |
| 20260831032549 | 69 | 0.0 | 1.0 | 0.00 | 0.00 | 0.00 | 11 | 1007.2 | |
| 20260831031538 | 69 | 0.0 | 2.0 | 0.00 | 0.00 | 0.00 | 11 | 1007.4 | |
| 20260831030527 | 69 | 0.0 | 0.0 | 0.00 | 0.00 | 0.00 | 11 | 1007.3 | |
| 20260831025515 | 69 | 0.0 | 0.0 | 0.00 | 0.00 | 0.00 | 11 | 1007.4 | |
| 20260831023958 | 68 | 0.0 | 0.0 | 0.00 | 0.00 | 0.00 | 11 | 1007.3 | |
| 20260831022341 | 69 | 0.0 | 1.0 | 0.00 | 0.00 | 0.00 | 11 | 1007.2 | |
| 20260831020622 | 69 | 0.0 | 0.0 | 0.00 | 0.00 | 0.00 | 11 | 1007.3 | |
| 20260831014458 | 69 | 0.0 | 0.0 | 0.00 | 0.00 | 0.00 | 11 | 1007.4 | |
| 20260831010212 | 69 | 0.0 | 0.0 | 0.00 | 0.00 | 0.00 | 11 | 1007.2 | |
| 20260831003442 | 69 | 0.0 | 0.0 | 0.00 | 0.00 | 0.00 | 11 | 1007.3 | |
| 20260831002330 | 69 | 0.0 | 0.0 | 0.00 | 0.00 | 0.00 | 11 | 1007.4 | |
| 20260831000712 | 69 | 0.0 | 0.0 | 0.00 | 0.00 | 0.00 | 11 | 1007.5 | |
| 20260830235305 | 69 | 0.0 | 0.0 | 0.00 | 0.00 | 0.00 | 11 | 1007.5 | |
| 20260830232431 | 71 | 0.0 | 0.0 | 0.00 | 0.00 | 0.00 | 11 | 1007.7 | |
| 20260830231117 | 71 | 0.0 | 0.0 | 0.00 | 0.00 | 0.00 | 11 | 1007.6 | |
| 20260830225658 | 71 | 0.0 | 0.0 | 0.00 | 0.00 | 0.00 | 11 | 1007.7 | |
| 20260830223231 | 71 | 0.0 | 1.0 | 0.00 | 0.00 | 0.00 | 11 | 1007.6 | |
| 20260830222220 | 71 | 0.0 | 0.0 | 0.00 | 0.00 | 0.00 | 11 | 1007.6 | |
| 20260830221208 | 71 | 0.0 | 0.0 | 0.00 | 0.00 | 0.00 | 11 | 1007.6 | |
| 20260830215044 | 73 | 0.0 | 3.0 | 0.00 | 0.00 | 0.00 | 11 | 1007.5 | |
| 20260830214033 | 73 | 0.0 | 0.0 | 0.00 | 0.00 | 0.00 | 11 | 1007.4 | |
| 20260830212817 | 73 | 0.0 | 1.0 | 0.00 | 0.00 | 0.00 | 11 | 1007.4 | |
| 20260830211805 | 73 | 0.0 | 0.0 | 0.00 | 0.00 | 0.00 | 11 | 1007.4 | |
| 20260830210754 | 73 | 0.0 | 0.0 | 0.00 | 0.00 | 0.00 | 11 | 1007.3 | |
| 20260830205742 | 73 | 0.0 | 1.0 | 0.00 | 0.00 | 0.00 | 11 | 1007.3 | |
| 20260830204630 | 73 | 0.0 | 0.0 | 0.00 | 0.00 | 0.00 | 11 | 1007.3 | |
| 20260830203615 | 73 | 0.0 | 2.0 | 0.00 | 0.00 | 0.00 | 11 | 1007.2 | |
| 20260830202604 | 75 | 0.0 | 0.0 | 0.00 | 0.00 | 0.00 | 11 | 1007.2 | |
| 20260830201548 | 75 | 0.0 | 0.0 | 0.00 | 0.00 | 0.00 | 11 | 1007.2 | |
| 20260830195818 | 75 | 0.0 | 1.0 | 0.00 | 0.00 | 0.00 | 11 | 1007.4 | |
| 20260830194704 | 75 | 0.0 | 0.0 | 0.00 | 0.00 | 0.00 | 11 | 1007.3 | |
| 20260830193046 | 75 | 0.0 | 0.0 | 0.00 | 0.00 | 0.00 | 11 | 1007.2 | |
| 20260830190316 | 78 | 0.0 | 2.0 | 0.00 | 0.00 | 0.00 | 11 | 1007.1 | |
| 20260830185306 | 78 | 0.0 | 1.0 | 0.00 | 0.00 | 0.00 | 11 | 1007.1 | |
| 20260830184147 | 77 | 1.0 | 3.0 | 0.00 | 0.00 | 0.00 | 11 | 1007.0 | |
| 20260830183136 | 78 | 1.0 | 3.0 | 0.00 | 0.00 | 0.00 | 11 | 1006.9 | |
| 20260830182124 | 78 | 2.0 | 3.0 | 0.00 | 0.00 | 0.00 | 11 | 1006.8 | |
| 20260830181113 | 78 | 1.0 | 4.0 | 0.00 | 0.00 | 0.00 | 11 | 1006.7 | |
| 20260830175050 | 78 | 2.0 | 4.0 | 0.00 | 0.00 | 0.00 | 11 | 1006.7 | |
| 20260830174039 | 78 | 3.0 | 4.0 | 0.00 | 0.00 | 0.00 | 11 | 1006.6 | |
| 20260830173028 | 78 | 1.0 | 4.0 | 0.00 | 0.00 | 0.00 | 11 | 1006.5 | |
| 20260830172016 | 78 | 1.0 | 4.0 | 0.00 | 0.00 | 0.00 | 11 | 1006.5 | |
| 20260830171005 | 78 | 2.0 | 4.0 | 0.00 | 0.00 | 0.00 | 11 | 1006.8 | |
| 20260830165954 | 78 | 2.0 | 4.0 | 0.00 | 0.00 | 0.00 | 11 | 1006.7 | |
| 20260830164942 | 78 | 3.0 | 5.0 | 0.00 | 0.00 | 0.00 | 11 | 1006.8 | |
| 20260830163931 | 80 | 0.0 | 4.0 | 0.00 | 0.00 | 0.00 | 11 | 1006.7 | |
| 20260830162910 | 80 | 2.0 | 4.0 | 0.00 | 0.00 | 0.00 | 11 | 1006.6 | |
| 20260830161853 | 80 | 2.0 | 4.0 | 0.00 | 0.00 | 0.00 | 11 | 1006.7 | |
| 20260830160841 | 80 | 0.0 | 6.0 | 0.00 | 0.00 | 0.00 | 11 | 1006.6 | |
| 20260830155829 | 80 | 4.0 | 6.0 | 0.00 | 0.00 | 0.00 | 11 | 1006.6 | |
| 20260830154812 | 82 | 1.0 | 3.0 | 0.00 | 0.00 | 0.00 | 11 | 1006.7 | |
| 20260830153800 | 80 | 2.0 | 5.0 | 0.00 | 0.00 | 0.00 | 11 | 1006.6 | |
| 20260830152746 | 84 | 0.0 | 3.0 | 0.00 | 0.00 | 0.00 | 11 | 1006.7 | |
| 20260830151734 | 84 | 3.0 | 6.0 | 0.00 | 0.00 | 0.00 | 11 | 1006.8 | |
| 20260830150723 | 84 | 1.0 | 4.0 | 0.00 | 0.00 | 0.00 | 11 | 1006.8 | |
| 20260830145708 | 84 | 3.0 | 6.0 | 0.00 | 0.00 | 0.00 | 11 | 1006.8 | |
| 20260830144653 | 84 | 0.0 | 4.0 | 0.00 | 0.00 | 0.00 | 11 | 1006.9 | |
| 20260830143642 | 84 | 2.0 | 8.0 | 0.00 | 0.00 | 0.00 | 11 | 1006.9 | |
| 20260830142630 | 86 | 3.0 | 6.0 | 0.00 | 0.00 | 0.00 | 11 | 1007.0 | |
| 20260830141619 | 86 | 1.0 | 4.0 | 0.00 | 0.00 | 0.00 | 11 | 1007.1 | |
| 20260830140608 | 84 | 3.0 | 8.0 | 0.00 | 0.00 | 0.00 | 11 | 1007.1 | |
| 20260830135556 | 86 | 0.0 | 7.0 | 0.00 | 0.00 | 0.00 | 11 | 1007.2 | |
| 20260830134544 | 86 | 2.0 | 6.0 | 0.00 | 0.00 | 0.00 | 11 | 1007.1 | |
| 20260830133533 | 86 | 1.0 | 8.0 | 0.00 | 0.00 | 0.00 | 10 | 1007.2 | |
| 20260830132521 | 87 | 2.0 | 5.0 | 0.00 | 0.00 | 0.00 | 94 | 1007.2 | |
| 20260830131510 | 87 | 2.0 | 6.0 | 0.00 | 0.00 | 0.00 | 10 | 1007.3 | |
| 20260830130458 | 89 | 0.0 | 8.0 | 0.00 | 0.00 | 0.00 | 94 | 1007.4 | |
| 20260830125446 | 91 | 1.0 | 3.0 | 0.00 | 0.00 | 0.00 | 82 | 1007.4 |